GFSGL_prec_precacc12_276.txt.gz
Total_Precipitation_Accumulation
0.00 0.00 0.00 0.00 0.00 0.00 0.00 0.00 0.00 0.00 0.00 0.00 0.00 0.00 0.00 0.00 0.00 0.00 0.02 0.15 0.26 0.45 0.47 0.58 0.84 0.74 0.74 0.45 0.20 0.18 0.13 0.01 0.00 0.00 0.00 0.00 0.00 0.07 0.08 0.07 0.03 0.04 0.01
0.00 0.00 0.00 0.00 0.00 0.00 0.00 0.00 0.00 0.00 0.00 0.00 0.00 0.00 0.00 0.01 0.06 0.12 0.12 0.37 0.77 0.52 0.34 0.47 0.56 0.60 0.59 0.48 0.31 0.15 0.07 0.00 0.00 0.00 0.00 0.00 0.00 0.07 0.02 0.00 0.00 0.00 0.00
0.00 0.00 0.00 0.03 0.03 0.01 0.00 0.00 0.00 0.00 0.00 0.00 0.02 0.05 0.11 0.17 0.21 0.35 0.46 0.27 0.77 0.66 0.41 0.49 0.47 0.48 0.55 0.32 0.25 0.11 0.02 0.00 0.00 0.00 0.00 0.00 0.00 0.04 0.03 0.01 0.00 0.00 0.00
0.00 0.00 0.00 0.01 0.02 0.04 0.04 0.03 0.11 0.14 0.13 0.30 0.25 0.25 0.20 0.15 0.14 0.24 0.13 0.17 0.58 0.59 0.44 0.30 0.42 0.35 0.45 0.29 0.10 0.10 0.01 0.00 0.00 0.00 0.00 0.00 0.00 0.01 0.09 0.11 0.07 0.01 0.01
0.03 0.02 0.01 0.01 0.04 0.08 0.11 0.15 0.17 0.24 0.23 0.23 0.20 0.19 0.13 0.11 0.09 0.18 0.04 0.07 0.42 0.44 0.24 0.23 0.33 0.27 0.42 0.14 0.03 0.06 0.01 0.00 0.00 0.00 0.00 0.00 0.00 0.00 0.03 0.05 0.20 0.21 0.05
0.06 0.07 0.07 0.09 0.07 0.15 0.21 0.31 0.27 0.13 0.07 0.03 0.03 0.03 0.02 0.03 0.05 0.06 0.04 0.07 0.23 0.33 0.26 0.15 0.31 0.27 0.15 0.10 0.01 0.03 0.02 0.00 0.00 0.00 0.00 0.00 0.00 0.00 0.00 0.01 0.03 0.11 0.14
0.04 0.06 0.11 0.15 0.21 0.25 0.24 0.23 0.15 0.05 0.01 0.00 0.02 0.06 0.05 0.12 0.24 0.16 0.09 0.03 0.07 0.12 0.22 0.16 0.31 0.17 0.05 0.02 0.00 0.01 0.01 0.00 0.00 0.00 0.00 0.00 0.00 0.00 0.00 0.00 0.01 0.04 0.06
0.01 0.02 0.02 0.03 0.05 0.05 0.05 0.04 0.01 0.00 0.00 0.01 0.02 0.09 0.13 0.24 0.34 0.18 0.03 0.00 0.01 0.08 0.26 0.28 0.26 0.23 0.07 0.02 0.00 0.00 0.00 0.00 0.00 0.00 0.00 0.00 0.00 0.00 0.00 0.00 0.00 0.01 0.00
0.00 0.00 0.00 0.00 0.00 0.00 0.00 0.00 0.00 0.00 0.00 0.02 0.08 0.10 0.14 0.31 0.20 0.12 0.03 0.01 0.04 0.12 0.16 0.21 0.14 0.08 0.01 0.00 0.00 0.00 0.00 0.00 0.00 0.00 0.00 0.00 0.00 0.00 0.00 0.00 0.00 0.00 0.00
0.00 0.00 0.00 0.00 0.00 0.00 0.00 0.00 0.00 0.00 0.00 0.01 0.12 0.15 0.15 0.17 0.15 0.05 0.01 0.00 0.00 0.04 0.08 0.09 0.10 0.05 0.00 0.00 0.00 0.00 0.00 0.00 0.00 0.00 0.00 0.00 0.00 0.00 0.00 0.00 0.00 0.00 0.00
0.00 0.00 0.00 0.00 0.00 0.00 0.00 0.00 0.00 0.00 0.00 0.01 0.07 0.11 0.14 0.15 0.11 0.07 0.01 0.00 0.00 0.01 0.05 0.12 0.20 0.23 0.03 0.01 0.01 0.01 0.00 0.00 0.00 0.00 0.00 0.00 0.00 0.00 0.00 0.00 0.00 0.00 0.00
0.00 0.00 0.00 0.00 0.00 0.00 0.00 0.00 0.00 0.00 0.00 0.01 0.05 0.08 0.07 0.10 0.16 0.10 0.03 0.02 0.01 0.00 0.02 0.04 0.07 0.14 0.12 0.14 0.12 0.14 0.02 0.00 0.00 0.00 0.00 0.00 0.00 0.00 0.00 0.00 0.00 0.00 0.00
0.00 0.00 0.00 0.00 0.00 0.00 0.00 0.00 0.00 0.00 0.00 0.00 0.01 0.04 0.07 0.03 0.07 0.14 0.13 0.04 0.05 0.02 0.02 0.03 0.03 0.00 0.00 0.01 0.00 0.00 0.00 0.00 0.00 0.00 0.00 0.00 0.00 0.00 0.00 0.00 0.00 0.00 0.00
0.00 0.00 0.00 0.00 0.00 0.00 0.00 0.00 0.00 0.00 0.00 0.00 0.00 0.00 0.02 0.01 0.03 0.07 0.05 0.04 0.04 0.03 0.08 0.03 0.04 0.04 0.03 0.02 0.02 0.01 0.01 0.00 0.00 0.00 0.00 0.00 0.00 0.00 0.00 0.00 0.00 0.00 0.00
0.00 0.00 0.00 0.00 0.00 0.00 0.00 0.00 0.00 0.00 0.00 0.00 0.00 0.00 0.00 0.00 0.02 0.04 0.03 0.03 0.03 0.05 0.11 0.08 0.06 0.07 0.07 0.07 0.07 0.11 0.08 0.05 0.01 0.00 0.00 0.00 0.00 0.00 0.00 0.00 0.00 0.00 0.00
0.00 0.00 0.00 0.00 0.00 0.00 0.00 0.00 0.01 0.01 0.02 0.01 0.01 0.01 0.00 0.01 0.01 0.01 0.03 0.04 0.06 0.05 0.09 0.13 0.16 0.19 0.20 0.19 0.13 0.13 0.12 0.09 0.05 0.04 0.01 0.00 0.00 0.00 0.00 0.00 0.00 0.00 0.00
0.01 0.00 0.00 0.00 0.00 0.00 0.00 0.00 0.00 0.01 0.01 0.01 0.01 0.01 0.01 0.00 0.00 0.01 0.02 0.03 0.04 0.04 0.05 0.07 0.18 0.25 0.27 0.27 0.21 0.16 0.13 0.08 0.04 0.03 0.03 0.03 0.01 0.00 0.00 0.00 0.00 0.00 0.00
0.01 0.00 0.00 0.00 0.00 0.00 0.00 0.00 0.00 0.00 0.00 0.00 0.01 0.00 0.00 0.00 0.00 0.01 0.01 0.01 0.02 0.03 0.03 0.11 0.15 0.19 0.26 0.34 0.31 0.34 0.26 0.14 0.07 0.04 0.03 0.04 0.04 0.02 0.00 0.00 0.00 0.00 0.00
0.13 0.07 0.01 0.00 0.00 0.00 0.00 0.00 0.00 0.00 0.00 0.00 0.00 0.00 0.00 0.00 0.00 0.01 0.02 0.00 0.01 0.01 0.02 0.05 0.07 0.22 0.19 0.24 0.27 0.31 0.35 0.24 0.20 0.16 0.10 0.05 0.05 0.04 0.03 0.01 0.00 0.00 0.00
0.03 0.03 0.02 0.00 0.00 0.00 0.00 0.00 0.00 0.00 0.00 0.00 0.00 0.00 0.00 0.00 0.00 0.00 0.01 0.00 0.00 0.01 0.02 0.03 0.04 0.15 0.20 0.16 0.21 0.21 0.28 0.29 0.20 0.13 0.09 0.06 0.05 0.06 0.04 0.01 0.01 0.02 0.00
0.00 0.00 0.00 0.00 0.00 0.00 0.00 0.00 0.00 0.00 0.00 0.00 0.00 0.01 0.00 0.00 0.00 0.00 0.01 0.01 0.01 0.00 0.01 0.02 0.03 0.04 0.11 0.15 0.15 0.15 0.22 0.23 0.26 0.19 0.12 0.13 0.12 0.08 0.08 0.07 0.07 0.07 0.04
0.00 0.00 0.00 0.00 0.00 0.00 0.00 0.00 0.00 0.00 0.00 0.00 0.00 0.00 0.01 0.00 0.00 0.00 0.00 0.00 0.00 0.00 0.01 0.01 0.03 0.04 0.05 0.10 0.15 0.16 0.23 0.24 0.21 0.22 0.16 0.11 0.09 0.08 0.06 0.06 0.05 0.09 0.06
0.00 0.00 0.00 0.00 0.00 0.00 0.00 0.00 0.00 0.00 0.00 0.00 0.00 0.00 0.00 0.00 0.00 0.00 0.00 0.00 0.00 0.00 0.01 0.02 0.04 0.05 0.07 0.06 0.05 0.07 0.11 0.22 0.29 0.22 0.19 0.20 0.15 0.11 0.11 0.07 0.07 0.07 0.07
0.00 0.00 0.00 0.00 0.00 0.00 0.00 0.00 0.00 0.00 0.00 0.00 0.00 0.00 0.00 0.00 0.00 0.00 0.00 0.00 0.00 0.00 0.01 0.02 0.03 0.05 0.07 0.08 0.07 0.05 0.06 0.10 0.14 0.22 0.27 0.24 0.22 0.21 0.18 0.15 0.07 0.05 0.08
0.00 0.00 0.00 0.00 0.00 0.00 0.00 0.00 0.00 0.00 0.00 0.00 0.00 0.00 0.00 0.00 0.00 0.00 0.00 0.00 0.00 0.00 0.01 0.01 0.03 0.03 0.04 0.06 0.06 0.06 0.12 0.15 0.08 0.16 0.20 0.22 0.24 0.19 0.14 0.15 0.10 0.04 0.04
0.00 0.00 0.00 0.00 0.00 0.00 0.00 0.00 0.00 0.00 0.00 0.00 0.00 0.00 0.00 0.00 0.00 0.00 0.00 0.00 0.00 0.00 0.01 0.02 0.03 0.05 0.05 0.05 0.09 0.14 0.16 0.11 0.11 0.15 0.11 0.18 0.21 0.20 0.17 0.13 0.08 0.06 0.03

GFSGL_prec_precacc12_279.txt.gz
Total_Precipitation_Accumulation
0.00 0.00 0.00 0.00 0.00 0.00 0.00 0.00 0.00 0.00 0.00 0.00 0.00 0.00 0.00 0.00 0.00 0.00 0.03 0.17 0.26 0.45 0.56 0.59 0.87 0.80 0.89 0.43 0.29 0.39 0.42 0.30 0.06 0.00 0.00 0.01 0.01 0.07 0.10 0.09 0.05 0.12 0.06
0.00 0.00 0.00 0.00 0.00 0.00 0.00 0.00 0.00 0.00 0.00 0.00 0.00 0.00 0.00 0.01 0.05 0.14 0.13 0.34 0.69 0.50 0.37 0.38 0.58 0.71 0.60 0.43 0.40 0.26 0.23 0.11 0.01 0.00 0.00 0.00 0.01 0.11 0.03 0.00 0.01 0.02 0.03
0.00 0.00 0.00 0.00 0.00 0.00 0.00 0.00 0.00 0.00 0.00 0.00 0.01 0.04 0.07 0.10 0.16 0.29 0.36 0.21 0.69 0.55 0.40 0.37 0.48 0.56 0.48 0.31 0.31 0.16 0.08 0.04 0.00 0.00 0.00 0.00 0.01 0.05 0.02 0.00 0.01 0.00 0.00
0.00 0.00 0.00 0.00 0.00 0.00 0.00 0.02 0.10 0.12 0.11 0.26 0.17 0.17 0.13 0.09 0.09 0.10 0.06 0.10 0.46 0.50 0.40 0.22 0.31 0.31 0.37 0.27 0.16 0.23 0.08 0.02 0.00 0.00 0.00 0.00 0.00 0.01 0.08 0.05 0.01 0.00 0.01
0.01 0.00 0.00 0.00 0.00 0.00 0.04 0.10 0.16 0.23 0.20 0.19 0.11 0.07 0.04 0.03 0.00 0.04 0.02 0.02 0.24 0.21 0.11 0.20 0.21 0.23 0.35 0.13 0.09 0.11 0.03 0.02 0.00 0.00 0.00 0.00 0.00 0.00 0.03 0.04 0.04 0.05 0.01
0.05 0.07 0.06 0.06 0.03 0.10 0.16 0.27 0.27 0.13 0.07 0.02 0.01 0.00 0.00 0.00 0.01 0.04 0.03 0.05 0.13 0.16 0.13 0.13 0.23 0.22 0.13 0.10 0.03 0.03 0.03 0.01 0.00 0.00 0.00 0.00 0.00 0.00 0.00 0.01 0.01 0.02 0.04
0.02 0.05 0.09 0.12 0.17 0.24 0.24 0.23 0.15 0.05 0.00 0.00 0.00 0.00 0.00 0.00 0.06 0.15 0.08 0.03 0.03 0.02 0.10 0.10 0.22 0.14 0.04 0.02 0.00 0.02 0.04 0.00 0.00 0.00 0.00 0.00 0.00 0.00 0.00 0.00 0.00 0.02 0.01
0.00 0.02 0.02 0.03 0.05 0.05 0.05 0.04 0.01 0.00 0.00 0.00 0.00 0.00 0.01 0.02 0.12 0.15 0.02 0.00 0.00 0.00 0.07 0.12 0.10 0.13 0.07 0.02 0.00 0.01 0.01 0.00 0.00 0.00 0.00 0.00 0.00 0.00 0.00 0.00 0.00 0.01 0.01
0.00 0.00 0.00 0.00 0.00 0.00 0.00 0.00 0.00 0.00 0.00 0.00 0.00 0.03 0.04 0.02 0.05 0.10 0.01 0.00 0.00 0.03 0.05 0.05 0.05 0.05 0.01 0.00 0.00 0.01 0.01 0.00 0.00 0.00 0.00 0.00 0.00 0.00 0.00 0.00 0.00 0.00 0.01
0.00 0.00 0.00 0.00 0.00 0.00 0.00 0.00 0.00 0.00 0.00 0.00 0.01 0.02 0.06 0.01 0.05 0.04 0.01 0.00 0.00 0.01 0.02 0.03 0.07 0.04 0.01 0.00 0.00 0.00 0.00 0.00 0.00 0.00 0.00 0.00 0.00 0.00 0.00 0.00 0.00 0.00 0.00
0.00 0.00 0.00 0.00 0.00 0.00 0.00 0.00 0.00 0.00 0.00 0.00 0.01 0.03 0.08 0.08 0.05 0.04 0.00 0.00 0.00 0.00 0.00 0.02 0.12 0.15 0.03 0.02 0.01 0.03 0.02 0.00 0.00 0.00 0.00 0.00 0.00 0.00 0.00 0.00 0.00 0.00 0.01
0.00 0.00 0.00 0.00 0.00 0.00 0.00 0.00 0.00 0.00 0.00 0.00 0.00 0.01 0.02 0.08 0.10 0.08 0.02 0.01 0.01 0.00 0.00 0.00 0.03 0.06 0.11 0.14 0.12 0.16 0.03 0.00 0.00 0.00 0.00 0.00 0.00 0.00 0.00 0.00 0.00 0.00 0.00
0.00 0.00 0.00 0.00 0.00 0.00 0.00 0.00 0.00 0.00 0.00 0.00 0.00 0.00 0.01 0.01 0.05 0.09 0.06 0.01 0.01 0.01 0.02 0.02 0.02 0.00 0.00 0.01 0.00 0.00 0.00 0.00 0.00 0.00 0.00 0.00 0.00 0.00 0.00 0.00 0.00 0.00 0.00
0.03 0.02 0.02 0.01 0.00 0.00 0.00 0.00 0.00 0.00 0.00 0.00 0.00 0.00 0.00 0.00 0.00 0.00 0.01 0.00 0.00 0.01 0.03 0.02 0.05 0.04 0.03 0.02 0.02 0.01 0.01 0.00 0.00 0.00 0.00 0.00 0.00 0.00 0.00 0.00 0.00 0.00 0.01
0.07 0.03 0.01 0.00 0.00 0.00 0.00 0.00 0.00 0.00 0.00 0.00 0.00 0.00 0.00 0.00 0.00 0.01 0.01 0.00 0.00 0.01 0.02 0.02 0.05 0.08 0.07 0.07 0.07 0.11 0.08 0.05 0.02 0.00 0.00 0.00 0.00 0.00 0.00 0.00 0.00 0.00 0.00
0.06 0.02 0.00 0.00 0.00 0.00 0.00 0.00 0.01 0.01 0.01 0.01 0.01 0.01 0.00 0.01 0.00 0.01 0.02 0.02 0.02 0.02 0.01 0.01 0.05 0.13 0.21 0.21 0.15 0.15 0.13 0.09 0.05 0.05 0.02 0.00 0.00 0.01 0.00 0.00 0.00 0.00 0.01
0.11 0.06 0.03 0.01 0.00 0.00 0.00 0.00 0.00 0.01 0.01 0.01 0.01 0.00 0.00 0.00 0.00 0.01 0.02 0.02 0.02 0.02 0.01 0.02 0.06 0.13 0.20 0.26 0.23 0.18 0.14 0.08 0.04 0.03 0.03 0.03 0.02 0.01 0.01 0.00 0.00 0.00 0.00
0.16 0.10 0.10 0.09 0.05 0.02 0.00 0.00 0.00 0.00 0.00 0.00 0.01 0.00 0.00 0.00 0.00 0.01 0.01 0.00 0.01 0.02 0.02 0.03 0.02 0.07 0.17 0.24 0.25 0.30 0.26 0.15 0.07 0.04 0.03 0.04 0.04 0.02 0.01 0.00 0.00 0.00 0.00
0.36 0.31 0.24 0.14 0.05 0.02 0.01 0.00 0.00 0.00 0.00 0.00 0.00 0.00 0.00 0.00 0.00 0.00 0.01 0.00 0.01 0.01 0.02 0.03 0.04 0.03 0.05 0.18 0.26 0.27 0.32 0.24 0.20 0.16 0.10 0.04 0.05 0.04 0.03 0.02 0.01 0.01 0.02
0.05 0.03 0.03 0.03 0.03 0.03 0.02 0.01 0.00 0.00 0.00 0.00 0.00 0.00 0.00 0.00 0.00 0.00 0.00 0.00 0.00 0.01 0.01 0.02 0.03 0.05 0.04 0.05 0.13 0.19 0.29 0.32 0.21 0.14 0.10 0.07 0.05 0.05 0.04 0.02 0.01 0.02 0.02
0.00 0.00 0.00 0.00 0.00 0.00 0.00 0.00 0.00 0.00 0.00 0.00 0.00 0.00 0.00 0.00 0.00 0.00 0.00 0.00 0.00 0.00 0.00 0.01 0.01 0.02 0.04 0.06 0.07 0.11 0.19 0.23 0.28 0.21 0.14 0.14 0.13 0.09 0.08 0.08 0.08 0.07 0.04
0.00 0.00 0.00 0.00 0.00 0.00 0.00 0.00 0.00 0.00 0.00 0.00 0.00 0.00 0.00 0.00 0.00 0.00 0.00 0.00 0.00 0.00 0.00 0.00 0.01 0.02 0.03 0.04 0.05 0.06 0.15 0.21 0.22 0.24 0.18 0.13 0.10 0.08 0.06 0.06 0.06 0.09 0.12
0.00 0.00 0.00 0.00 0.00 0.00 0.00 0.00 0.00 0.00 0.00 0.00 0.00 0.00 0.00 0.00 0.00 0.00 0.00 0.00 0.00 0.00 0.00 0.00 0.00 0.01 0.01 0.03 0.04 0.05 0.07 0.19 0.27 0.24 0.21 0.22 0.16 0.12 0.11 0.07 0.10 0.10 0.10
0.00 0.00 0.00 0.00 0.00 0.00 0.00 0.00 0.00 0.00 0.00 0.00 0.00 0.00 0.00 0.00 0.00 0.00 0.00 0.00 0.00 0.00 0.00 0.00 0.00 0.00 0.01 0.01 0.02 0.03 0.04 0.09 0.14 0.22 0.28 0.27 0.25 0.25 0.19 0.15 0.09 0.12 0.15
0.00 0.00 0.00 0.00 0.00 0.00 0.00 0.00 0.00 0.00 0.00 0.00 0.00 0.00 0.00 0.00 0.00 0.00 0.00 0.00 0.00 0.00 0.00 0.00 0.00 0.00 0.00 0.01 0.01 0.02 0.09 0.14 0.08 0.16 0.19 0.23 0.26 0.22 0.17 0.19 0.15 0.09 0.09
0.00 0.00 0.00 0.00 0.00 0.00 0.00 0.00 0.00 0.00 0.00 0.00 0.00 0.00 0.00 0.00 0.00 0.00 0.00 0.00 0.00 0.00 0.00 0.00 0.00 0.00 0.00 0.00 0.02 0.05 0.09 0.09 0.10 0.14 0.11 0.18 0.22 0.22 0.21 0.16 0.16 0.12 0.07

GFSGL_prec_precacc12_285.txt.gz
Total_Precipitation_Accumulation
0.00 0.00 0.00 0.00 0.00 0.00 0.00 0.00 0.00 0.00 0.00 0.00 0.00 0.00 0.00 0.00 0.00 0.00 0.05 0.18 0.17 0.18 0.49 0.40 0.78 0.76 0.93 0.49 0.30 0.38 0.51 0.62 0.19 0.03 0.03 0.04 0.02 0.05 0.05 0.07 0.09 0.13 0.07
0.00 0.00 0.00 0.00 0.00 0.00 0.00 0.00 0.00 0.00 0.00 0.00 0.00 0.00 0.00 0.00 0.00 0.09 0.07 0.23 0.14 0.07 0.14 0.21 0.35 0.60 0.45 0.29 0.28 0.25 0.33 0.28 0.06 0.01 0.03 0.04 0.03 0.14 0.03 0.02 0.02 0.09 0.11
0.00 0.00 0.00 0.00 0.00 0.00 0.00 0.00 0.00 0.00 0.00 0.00 0.00 0.00 0.00 0.00 0.02 0.02 0.00 0.01 0.01 0.01 0.07 0.11 0.22 0.33 0.32 0.26 0.22 0.27 0.19 0.18 0.08 0.00 0.02 0.02 0.05 0.07 0.04 0.06 0.09 0.13 0.06
0.00 0.00 0.00 0.00 0.00 0.00 0.00 0.00 0.00 0.00 0.01 0.03 0.00 0.00 0.00 0.00 0.00 0.00 0.00 0.00 0.00 0.03 0.05 0.02 0.04 0.09 0.15 0.16 0.20 0.30 0.25 0.20 0.06 0.00 0.01 0.01 0.03 0.02 0.02 0.03 0.05 0.05 0.03
0.00 0.00 0.00 0.00 0.00 0.00 0.00 0.01 0.04 0.09 0.07 0.04 0.02 0.01 0.00 0.00 0.00 0.00 0.00 0.00 0.01 0.00 0.00 0.01 0.01 0.02 0.04 0.10 0.13 0.14 0.14 0.16 0.01 0.00 0.00 0.01 0.02 0.01 0.02 0.03 0.02 0.05 0.09
0.00 0.00 0.00 0.00 0.00 0.01 0.05 0.15 0.18 0.09 0.04 0.02 0.01 0.00 0.00 0.00 0.00 0.01 0.01 0.00 0.01 0.00 0.00 0.00 0.00 0.01 0.01 0.05 0.04 0.04 0.09 0.08 0.00 0.00 0.00 0.00 0.00 0.00 0.01 0.01 0.02 0.04 0.08
0.00 0.00 0.00 0.00 0.01 0.03 0.07 0.12 0.09 0.03 0.00 0.00 0.00 0.00 0.00 0.00 0.02 0.06 0.04 0.01 0.00 0.00 0.00 0.00 0.00 0.00 0.01 0.00 0.00 0.03 0.13 0.02 0.00 0.00 0.00 0.00 0.00 0.00 0.00 0.01 0.04 0.05 0.10
0.00 0.00 0.00 0.00 0.00 0.00 0.02 0.03 0.01 0.00 0.00 0.00 0.00 0.00 0.01 0.00 0.03 0.02 0.00 0.00 0.00 0.00 0.00 0.00 0.00 0.00 0.00 0.00 0.00 0.02 0.03 0.01 0.00 0.00 0.00 0.00 0.00 0.00 0.00 0.00 0.01 0.04 0.07
0.00 0.00 0.00 0.00 0.00 0.00 0.00 0.00 0.00 0.00 0.00 0.00 0.00 0.00 0.00 0.00 0.03 0.05 0.01 0.00 0.00 0.00 0.00 0.00 0.00 0.00 0.00 0.00 0.00 0.01 0.02 0.01 0.00 0.00 0.00 0.00 0.00 0.00 0.00 0.00 0.00 0.00 0.02
0.00 0.00 0.00 0.00 0.00 0.00 0.00 0.01 0.00 0.00 0.00 0.00 0.00 0.00 0.01 0.00 0.02 0.02 0.00 0.00 0.00 0.00 0.01 0.00 0.00 0.00 0.01 0.00 0.00 0.00 0.00 0.00 0.00 0.00 0.00 0.00 0.00 0.00 0.00 0.00 0.01 0.01 0.04
0.00 0.00 0.00 0.00 0.00 0.00 0.00 0.00 0.00 0.01 0.01 0.00 0.00 0.00 0.00 0.00 0.00 0.00 0.00 0.00 0.00 0.00 0.00 0.01 0.00 0.01 0.01 0.01 0.00 0.03 0.02 0.00 0.00 0.00 0.00 0.00 0.00 0.00 0.00 0.00 0.01 0.01 0.04
0.03 0.03 0.01 0.00 0.00 0.00 0.00 0.00 0.00 0.00 0.00 0.00 0.00 0.00 0.00 0.00 0.00 0.00 0.00 0.00 0.00 0.00 0.00 0.00 0.00 0.00 0.00 0.00 0.04 0.16 0.03 0.00 0.00 0.00 0.00 0.00 0.00 0.00 0.00 0.00 0.01 0.01 0.03
0.38 0.35 0.18 0.04 0.01 0.02 0.03 0.02 0.01 0.00 0.00 0.00 0.00 0.00 0.00 0.00 0.00 0.00 0.00 0.00 0.00 0.00 0.00 0.01 0.01 0.00 0.00 0.00 0.00 0.00 0.00 0.00 0.00 0.00 0.00 0.00 0.00 0.00 0.00 0.00 0.01 0.02 0.03
0.37 0.54 0.33 0.15 0.04 0.02 0.01 0.01 0.00 0.00 0.00 0.00 0.00 0.00 0.00 0.00 0.00 0.00 0.00 0.00 0.00 0.00 0.00 0.01 0.03 0.01 0.01 0.00 0.00 0.01 0.01 0.00 0.00 0.00 0.00 0.00 0.00 0.00 0.00 0.00 0.01 0.01 0.02
0.42 0.45 0.51 0.26 0.08 0.03 0.01 0.01 0.01 0.01 0.00 0.00 0.00 0.00 0.00 0.00 0.00 0.00 0.00 0.00 0.00 0.00 0.01 0.01 0.02 0.05 0.04 0.04 0.01 0.05 0.06 0.05 0.02 0.00 0.00 0.00 0.00 0.00 0.00 0.00 0.00 0.01 0.01
0.41 0.40 0.38 0.36 0.24 0.10 0.03 0.06 0.09 0.05 0.01 0.01 0.00 0.00 0.00 0.00 0.00 0.00 0.01 0.01 0.01 0.01 0.01 0.02 0.02 0.07 0.10 0.09 0.06 0.05 0.06 0.07 0.05 0.05 0.02 0.00 0.00 0.01 0.01 0.00 0.00 0.00 0.02
0.27 0.27 0.28 0.22 0.15 0.08 0.03 0.01 0.03 0.04 0.02 0.01 0.00 0.00 0.00 0.00 0.00 0.00 0.00 0.01 0.00 0.00 0.01 0.02 0.02 0.04 0.06 0.09 0.07 0.05 0.03 0.02 0.02 0.02 0.03 0.03 0.02 0.02 0.01 0.01 0.01 0.00 0.01
0.28 0.21 0.22 0.27 0.18 0.11 0.04 0.01 0.00 0.00 0.00 0.00 0.00 0.00 0.00 0.00 0.00 0.00 0.00 0.00 0.00 0.00 0.01 0.01 0.01 0.01 0.03 0.06 0.07 0.07 0.04 0.03 0.02 0.01 0.02 0.04 0.04 0.03 0.02 0.01 0.01 0.00 0.00
0.58 0.49 0.36 0.29 0.16 0.08 0.04 0.01 0.00 0.00 0.00 0.00 0.00 0.00 0.00 0.00 0.00 0.00 0.00 0.00 0.00 0.00 0.00 0.01 0.01 0.00 0.01 0.03 0.05 0.06 0.07 0.06 0.07 0.06 0.06 0.04 0.04 0.03 0.03 0.02 0.01 0.01 0.02
0.39 0.29 0.20 0.16 0.10 0.07 0.04 0.02 0.00 0.00 0.00 0.00 0.00 0.00 0.00 0.00 0.00 0.00 0.00 0.00 0.00 0.00 0.00 0.00 0.01 0.01 0.00 0.01 0.03 0.05 0.09 0.13 0.06 0.05 0.05 0.05 0.04 0.05 0.04 0.02 0.01 0.01 0.02
0.44 0.38 0.27 0.19 0.10 0.06 0.03 0.01 0.00 0.00 0.00 0.00 0.00 0.00 0.00 0.00 0.00 0.00 0.00 0.00 0.00 0.00 0.00 0.00 0.00 0.00 0.01 0.01 0.01 0.03 0.07 0.09 0.13 0.07 0.04 0.05 0.06 0.07 0.07 0.05 0.03 0.04 0.04
0.71 0.79 0.58 0.37 0.17 0.09 0.04 0.01 0.00 0.00 0.00 0.00 0.00 0.00 0.00 0.00 0.00 0.00 0.00 0.00 0.00 0.00 0.00 0.00 0.00 0.00 0.00 0.01 0.01 0.01 0.04 0.05 0.10 0.13 0.08 0.05 0.05 0.05 0.08 0.08 0.06 0.09 0.12
0.48 0.80 0.66 0.45 0.43 0.43 0.25 0.08 0.01 0.00 0.00 0.00 0.00 0.00 0.00 0.00 0.00 0.00 0.00 0.00 0.00 0.00 0.00 0.00 0.00 0.00 0.00 0.00 0.01 0.01 0.01 0.03 0.07 0.11 0.11 0.09 0.06 0.07 0.08 0.08 0.09 0.11 0.12
0.26 0.24 0.32 0.47 0.34 0.27 0.23 0.21 0.05 0.00 0.00 0.00 0.00 0.00 0.00 0.00 0.00 0.00 0.00 0.00 0.00 0.00 0.00 0.00 0.00 0.00 0.00 0.00 0.00 0.01 0.01 0.01 0.02 0.05 0.11 0.13 0.14 0.18 0.12 0.10 0.11 0.15 0.18
0.06 0.06 0.06 0.06 0.08 0.05 0.01 0.01 0.00 0.00 0.00 0.00 0.00 0.00 0.00 0.00 0.00 0.00 0.00 0.00 0.00 0.00 0.00 0.00 0.00 0.00 0.00 0.00 0.00 0.00 0.00 0.01 0.00 0.03 0.05 0.08 0.12 0.15 0.13 0.13 0.11 0.11 0.13
0.07 0.02 0.02 0.01 0.00 0.00 0.00 0.00 0.00 0.00 0.00 0.00 0.00 0.00 0.00 0.00 0.00 0.00 0.00 0.00 0.00 0.00 0.00 0.00 0.00 0.00 0.00 0.00 0.00 0.00 0.00 0.00 0.00 0.00 0.01 0.02 0.06 0.12 0.16 0.14 0.14 0.14 0.13

GFSGL_prec_precacc12_291.txt.gz
Total_Precipitation_Accumulation
0.00 0.00 0.00 0.00 0.00 0.00 0.00 0.00 0.00 0.00 0.00 0.00 0.00 0.00 0.00 0.00 0.00 0.02 0.09 0.09 0.10 0.10 0.31 0.22 0.25 0.37 0.40 0.51 0.17 0.05 0.09 0.40 0.27 0.09 0.05 0.04 0.01 0.03 0.02 0.02 0.05 0.03 0.02
0.00 0.00 0.00 0.00 0.00 0.00 0.00 0.00 0.00 0.00 0.00 0.00 0.00 0.00 0.00 0.00 0.02 0.14 0.10 0.07 0.06 0.05 0.13 0.20 0.17 0.27 0.31 0.21 0.08 0.07 0.13 0.28 0.26 0.03 0.03 0.03 0.03 0.10 0.03 0.02 0.02 0.07 0.07
0.00 0.00 0.00 0.00 0.00 0.00 0.00 0.00 0.00 0.00 0.00 0.00 0.00 0.00 0.00 0.00 0.04 0.03 0.02 0.01 0.00 0.02 0.10 0.12 0.12 0.17 0.23 0.21 0.07 0.17 0.13 0.28 0.21 0.00 0.02 0.02 0.06 0.06 0.04 0.06 0.11 0.16 0.06
0.00 0.00 0.00 0.00 0.00 0.00 0.00 0.00 0.00 0.00 0.00 0.00 0.00 0.00 0.00 0.01 0.07 0.06 0.01 0.00 0.01 0.04 0.06 0.02 0.01 0.02 0.07 0.12 0.09 0.12 0.22 0.29 0.09 0.01 0.01 0.02 0.03 0.03 0.02 0.04 0.08 0.09 0.02
0.00 0.00 0.00 0.00 0.00 0.00 0.00 0.00 0.00 0.00 0.00 0.00 0.00 0.00 0.01 0.07 0.17 0.01 0.00 0.00 0.01 0.01 0.00 0.00 0.00 0.00 0.02 0.05 0.05 0.05 0.14 0.19 0.02 0.00 0.00 0.02 0.03 0.01 0.02 0.03 0.03 0.05 0.10
0.00 0.00 0.00 0.00 0.00 0.00 0.00 0.00 0.00 0.00 0.00 0.00 0.00 0.00 0.03 0.16 0.05 0.02 0.00 0.00 0.00 0.00 0.00 0.00 0.00 0.00 0.01 0.02 0.01 0.01 0.06 0.07 0.00 0.00 0.00 0.00 0.01 0.01 0.01 0.01 0.04 0.05 0.11
0.00 0.00 0.00 0.00 0.00 0.00 0.00 0.00 0.00 0.00 0.00 0.00 0.00 0.00 0.13 0.08 0.03 0.01 0.00 0.00 0.00 0.00 0.00 0.00 0.00 0.00 0.00 0.00 0.00 0.01 0.09 0.02 0.00 0.01 0.00 0.00 0.00 0.01 0.01 0.01 0.05 0.07 0.14
0.00 0.00 0.00 0.00 0.00 0.00 0.00 0.00 0.00 0.00 0.00 0.00 0.00 0.05 0.09 0.04 0.01 0.00 0.00 0.00 0.00 0.00 0.00 0.00 0.00 0.00 0.00 0.00 0.00 0.00 0.01 0.01 0.00 0.00 0.00 0.00 0.00 0.02 0.01 0.02 0.05 0.06 0.09
0.00 0.00 0.03 0.03 0.00 0.00 0.00 0.00 0.00 0.01 0.01 0.01 0.02 0.05 0.04 0.03 0.00 0.00 0.00 0.00 0.00 0.00 0.00 0.00 0.00 0.00 0.00 0.00 0.00 0.00 0.01 0.01 0.00 0.00 0.00 0.00 0.00 0.00 0.00 0.00 0.01 0.01 0.03
0.00 0.00 0.02 0.07 0.08 0.03 0.00 0.01 0.01 0.01 0.02 0.03 0.01 0.03 0.04 0.02 0.00 0.00 0.00 0.00 0.00 0.00 0.00 0.00 0.00 0.00 0.00 0.00 0.00 0.00 0.00 0.00 0.00 0.00 0.00 0.00 0.00 0.00 0.00 0.01 0.01 0.03 0.07
0.00 0.01 0.05 0.08 0.13 0.06 0.05 0.08 0.09 0.11 0.06 0.01 0.00 0.03 0.03 0.01 0.00 0.00 0.00 0.00 0.00 0.00 0.00 0.01 0.00 0.00 0.00 0.00 0.00 0.00 0.00 0.00 0.00 0.00 0.00 0.00 0.00 0.00 0.00 0.01 0.03 0.03 0.06
0.06 0.09 0.15 0.15 0.19 0.19 0.32 0.38 0.35 0.24 0.05 0.01 0.03 0.02 0.02 0.00 0.00 0.00 0.00 0.00 0.00 0.00 0.00 0.00 0.00 0.00 0.00 0.00 0.00 0.00 0.00 0.00 0.00 0.00 0.00 0.00 0.00 0.00 0.00 0.00 0.03 0.04 0.08
0.47 0.58 0.53 0.49 0.48 0.45 0.62 0.68 0.68 0.59 0.57 0.24 0.09 0.08 0.04 0.01 0.01 0.00 0.00 0.00 0.00 0.00 0.00 0.00 0.00 0.00 0.00 0.00 0.00 0.00 0.00 0.00 0.00 0.00 0.00 0.00 0.00 0.00 0.00 0.00 0.02 0.04 0.07
0.40 0.71 0.63 0.95 1.51 1.70 2.02 2.49 2.58 2.48 2.46 1.58 0.55 0.16 0.13 0.07 0.03 0.01 0.00 0.00 0.00 0.00 0.00 0.00 0.00 0.00 0.00 0.00 0.00 0.00 0.00 0.00 0.00 0.00 0.00 0.00 0.00 0.00 0.00 0.00 0.01 0.01 0.02
0.38 0.46 0.82 1.05 0.83 0.85 1.33 1.62 1.80 1.88 1.66 1.35 0.78 0.39 0.11 0.10 0.05 0.01 0.01 0.00 0.00 0.00 0.00 0.01 0.00 0.00 0.00 0.01 0.01 0.00 0.00 0.00 0.00 0.00 0.00 0.00 0.00 0.00 0.00 0.00 0.00 0.01 0.01
0.37 0.40 0.41 0.64 1.14 1.45 0.94 0.85 0.64 0.45 0.44 0.29 0.20 0.13 0.05 0.05 0.02 0.00 0.01 0.00 0.00 0.01 0.00 0.01 0.00 0.00 0.01 0.00 0.01 0.01 0.03 0.00 0.00 0.00 0.00 0.00 0.00 0.00 0.00 0.00 0.00 0.00 0.01
0.21 0.29 0.28 0.23 0.23 0.40 0.98 1.56 1.37 1.25 0.90 0.73 0.46 0.23 0.06 0.01 0.00 0.00 0.00 0.01 0.00 0.00 0.00 0.00 0.00 0.00 0.00 0.00 0.01 0.01 0.01 0.00 0.00 0.00 0.00 0.00 0.00 0.01 0.00 0.01 0.01 0.00 0.00
0.16 0.23 0.20 0.24 0.18 0.21 0.15 0.36 0.70 0.60 0.55 0.43 0.29 0.14 0.04 0.01 0.00 0.00 0.00 0.00 0.00 0.00 0.00 0.00 0.00 0.00 0.00 0.00 0.00 0.01 0.01 0.03 0.03 0.01 0.01 0.00 0.00 0.01 0.01 0.01 0.00 0.00 0.00
0.27 0.28 0.22 0.28 0.18 0.24 0.21 0.16 0.14 0.13 0.11 0.09 0.04 0.01 0.01 0.00 0.00 0.00 0.00 0.00 0.00 0.00 0.00 0.00 0.00 0.00 0.00 0.00 0.00 0.00 0.00 0.02 0.06 0.06 0.06 0.04 0.01 0.01 0.01 0.01 0.00 0.00 0.00
0.38 0.33 0.26 0.27 0.23 0.22 0.24 0.19 0.15 0.12 0.14 0.12 0.08 0.02 0.00 0.00 0.00 0.00 0.00 0.00 0.00 0.00 0.00 0.00 0.00 0.00 0.00 0.00 0.00 0.00 0.00 0.01 0.01 0.03 0.03 0.03 0.02 0.02 0.02 0.02 0.02 0.02 0.00
0.46 0.42 0.38 0.29 0.30 0.30 0.28 0.25 0.19 0.16 0.10 0.07 0.08 0.08 0.04 0.01 0.00 0.00 0.00 0.00 0.00 0.00 0.00 0.00 0.00 0.00 0.00 0.00 0.00 0.00 0.00 0.00 0.00 0.00 0.01 0.02 0.01 0.01 0.02 0.02 0.03 0.05 0.06
0.72 0.85 0.66 0.46 0.38 0.37 0.29 0.22 0.15 0.16 0.12 0.10 0.06 0.04 0.01 0.01 0.01 0.00 0.00 0.00 0.00 0.00 0.00 0.00 0.00 0.00 0.00 0.00 0.00 0.00 0.00 0.00 0.00 0.00 0.00 0.01 0.01 0.03 0.04 0.03 0.03 0.02 0.03
0.51 0.89 0.74 0.57 0.60 0.63 0.45 0.24 0.16 0.09 0.10 0.10 0.05 0.01 0.01 0.01 0.00 0.00 0.00 0.00 0.00 0.00 0.00 0.00 0.00 0.00 0.00 0.00 0.00 0.00 0.00 0.00 0.00 0.00 0.00 0.00 0.00 0.01 0.02 0.03 0.03 0.04 0.03
0.31 0.38 0.51 0.67 0.59 0.47 0.45 0.41 0.34 0.27 0.18 0.09 0.05 0.02 0.01 0.01 0.00 0.00 0.00 0.00 0.00 0.00 0.00 0.00 0.00 0.00 0.00 0.00 0.00 0.00 0.00 0.00 0.00 0.00 0.00 0.00 0.00 0.02 0.01 0.01 0.04 0.05 0.06
0.13 0.19 0.34 0.43 0.55 0.56 0.40 0.25 0.24 0.27 0.25 0.20 0.16 0.09 0.05 0.02 0.00 0.00 0.00 0.00 0.00 0.00 0.00 0.00 0.00 0.00 0.00 0.00 0.00 0.00 0.00 0.00 0.00 0.00 0.00 0.00 0.00 0.00 0.01 0.01 0.01 0.04 0.05
0.11 0.11 0.19 0.28 0.36 0.27 0.30 0.34 0.26 0.19 0.21 0.21 0.16 0.11 0.06 0.05 0.06 0.05 0.03 0.01 0.00 0.00 0.00 0.00 0.00 0.00 0.00 0.00 0.00 0.00 0.00 0.00 0.00 0.00 0.00 0.00 0.00 0.00 0.00 0.00 0.01 0.03 0.08